owner,sensor,date,latitude,longitude,vertical_datum,wind_speed,wind_to_direction,wind_speed_of_gust,qcFlag 
TABS,ioos:station:wmo:42045:1,2017-10-01T00:00:00Z,26.2168,-96.4998,4.0,6.319058474,110.47152,7.29,'11111222,11111222,11111222' 
TABS,ioos:station:wmo:42045:1,2017-10-01T00:30:00Z,26.2168,-96.4998,4.0,5.966070734,116.0500208,7.48,'11111222,11111222,11111222' 
TABS,ioos:station:wmo:42045:1,2017-10-01T01:00:00Z,26.2168,-96.4998,4.0,6.094005251,107.8704164,7.58,'11111222,11111222,11111222' 
TABS,ioos:station:wmo:42045:1,2017-10-01T01:30:00Z,26.2168,-96.4998,4.0,5.6037309,116.1538761,6.8,'11111222,11111222,11111222' 
TABS,ioos:station:wmo:42045:1,2017-10-01T02:00:00Z,26.2168,-96.4998,4.0,5.326922188,115.6995467,6.26,'11111222,11111222,11111222' 
TABS,ioos:station:wmo:42045:1,2017-10-01T02:30:00Z,26.2168,-96.4998,4.0,5.193110821,109.34249,6.46,'11111222,11111222,11111222' 
TABS,ioos:station:wmo:42045:1,2017-10-01T03:00:00Z,26.2168,-96.4998,4.0,5.393199421,101.2269879,6.41,'11111222,11111222,11111222' 
TABS,ioos:station:wmo:42045:1,2017-10-01T03:30:00Z,26.2168,-96.4998,4.0,5.869795567,101.0997525,6.86,'11111222,11111222,11111222' 
TABS,ioos:station:wmo:42045:1,2017-10-01T04:00:00Z,26.2168,-96.4998,4.0,5.979205633,99.33669284,7.26,'11111222,11111222,11111222' 
TABS,ioos:station:wmo:42045:1,2017-10-01T04:30:00Z,26.2168,-96.4998,4.0,6.225126505,101.9601552,7.73,'11111222,11111222,11111222' 
TABS,ioos:station:wmo:42045:1,2017-10-01T05:00:00Z,26.2168,-96.4998,4.0,6.286405968,110.1937247,7.7,'11111222,11111222,11111222' 
TABS,ioos:station:wmo:42045:1,2017-10-01T05:30:00Z,26.2168,-96.4998,4.0,5.785533683,113.6410846,7.21,'11111222,11111222,11111222' 
TABS,ioos:station:wmo:42045:1,2017-10-01T06:00:00Z,26.2168,-96.4998,4.0,6.420669747,98.50910434,7.68,'11111222,11111222,11111222' 
TABS,ioos:station:wmo:42045:1,2017-10-01T06:30:00Z,26.2168,-96.4998,4.0,7.230055325,96.03430053,8.46,'11111222,11111222,11111222' 
TABS,ioos:station:wmo:42045:1,2017-10-01T07:00:00Z,26.2168,-96.4998,4.0,7.075203177,102.4062286,8.72,'11111222,11111222,11111222' 
TABS,ioos:station:wmo:42045:1,2017-10-01T07:30:00Z,26.2168,-96.4998,4.0,7.138101989,103.5304651,8.81,'11111222,11111222,11111222' 
TABS,ioos:station:wmo:42045:1,2017-10-01T08:00:00Z,26.2168,-96.4998,4.0,7.227371583,101.9788754,8.6,'11111222,11111222,11111222' 
TABS,ioos:station:wmo:42045:1,2017-10-01T08:30:00Z,26.2168,-96.4998,4.0,7.225821753,108.5606998,8.5,'11111222,11111222,11111222' 
TABS,ioos:station:wmo:42045:1,2017-10-01T09:00:00Z,26.2168,-96.4998,4.0,6.831178522,109.2310483,8.47,'11111222,11111222,11111222' 
TABS,ioos:station:wmo:42045:1,2017-10-01T09:30:00Z,26.2168,-96.4998,4.0,6.601121117,110.5767357,7.99,'11111222,11111222,11111222' 
TABS,ioos:station:wmo:42045:1,2017-10-01T10:00:00Z,26.2168,-96.4998,4.0,6.388505302,107.5844638,7.64,'11111222,11111222,11111222' 
TABS,ioos:station:wmo:42045:1,2017-10-01T10:30:00Z,26.2168,-96.4998,4.0,6.163286461,108.3471343,7.55,'11111222,11111222,11111222' 
TABS,ioos:station:wmo:42045:1,2017-10-01T11:00:00Z,26.2168,-96.4998,4.0,5.927596477,113.8843398,7.03,'11111222,11111222,11111222' 
TABS,ioos:station:wmo:42045:1,2017-10-01T11:30:00Z,26.2168,-96.4998,4.0,6.028465808,116.3953937,7.51,'11111222,11111222,11111222' 
TABS,ioos:station:wmo:42045:1,2017-10-01T12:00:00Z,26.2168,-96.4998,4.0,6.093176511,115.0513402,7.84,'11111222,11111222,11111222' 
TABS,ioos:station:wmo:42045:1,2017-10-01T12:30:00Z,26.2168,-96.4998,4.0,6.265468857,116.6472024,7.71,'11111222,11111222,11111222' 
TABS,ioos:station:wmo:42045:1,2017-10-01T13:00:00Z,26.2168,-96.4998,4.0,6.223768955,121.2640795,7.75,'11111222,11111222,11111222' 
TABS,ioos:station:wmo:42045:1,2017-10-01T13:30:00Z,26.2168,-96.4998,4.0,6.145347834,118.9010099,7.19,'11111222,11111222,11111222' 
TABS,ioos:station:wmo:42045:1,2017-10-01T14:00:00Z,26.2168,-96.4998,4.0,6.177782774,115.1965493,7.42,'11111222,11111222,11111222' 
TABS,ioos:station:wmo:42045:1,2017-10-01T14:30:00Z,26.2168,-96.4998,4.0,6.013626194,118.3979045,7.23,'11111222,11111222,11111222' 
TABS,ioos:station:wmo:42045:1,2017-10-01T15:00:00Z,26.2168,-96.4998,4.0,5.573239632,114.0359217,6.76,'11111222,11111222,11111222' 
TABS,ioos:station:wmo:42045:1,2017-10-01T15:30:00Z,26.2168,-96.4998,4.0,5.874563814,110.0084788,7.15,'11111222,11111222,11111222' 
TABS,ioos:station:wmo:42045:1,2017-10-01T16:00:00Z,26.2168,-96.4998,4.0,5.744701907,109.9493965,7.29,'11111222,11111222,11111222' 
TABS,ioos:station:wmo:42045:1,2017-10-01T16:30:00Z,26.2168,-96.4998,4.0,5.440266538,119.3925279,6.92,'11111222,11111222,11111222' 
TABS,ioos:station:wmo:42045:1,2017-10-01T17:00:00Z,26.2168,-96.4998,4.0,5.648406855,110.5208012,6.7,'11111222,11111222,11111222' 
TABS,ioos:station:wmo:42045:1,2017-10-01T17:30:00Z,26.2168,-96.4998,4.0,5.534347297,109.0901055,6.56,'11111222,11111222,11111222' 
TABS,ioos:station:wmo:42045:1,2017-10-01T18:00:00Z,26.2168,-96.4998,4.0,5.369580989,108.2328694,6.29,'11111222,11111222,11111222' 
TABS,ioos:station:wmo:42045:1,2017-10-01T18:30:00Z,26.2168,-96.4998,4.0,5.28259406,115.4497171,6.48,'11111222,11111222,11111222' 
TABS,ioos:station:wmo:42045:1,2017-10-01T19:00:00Z,26.2168,-96.4998,4.0,5.121816084,117.8162079,6.51,'11111222,11111222,11111222' 
TABS,ioos:station:wmo:42045:1,2017-10-01T19:30:00Z,26.2168,-96.4998,4.0,5.089675825,115.8605782,6.08,'11111222,11111222,11111222' 
TABS,ioos:station:wmo:42045:1,2017-10-01T20:00:00Z,26.2168,-96.4998,4.0,4.787065907,118.1714092,5.8,'11111222,11111222,11111222' 
TABS,ioos:station:wmo:42045:1,2017-10-01T20:30:00Z,26.2168,-96.4998,4.0,4.921839087,118.3878384,6.26,'11111222,11111222,11111222' 
TABS,ioos:station:wmo:42045:1,2017-10-01T21:00:00Z,26.2168,-96.4998,4.0,4.53927307,116.2831677,5.47,'11111222,11111222,11111222' 
TABS,ioos:station:wmo:42045:1,2017-10-01T21:30:00Z,26.2168,-96.4998,4.0,4.857324366,108.7337388,5.76,'11111222,11111222,11111222' 
TABS,ioos:station:wmo:42045:1,2017-10-01T22:00:00Z,26.2168,-96.4998,4.0,4.8681516,109.8125395,6.07,'11111222,11111222,11111222' 
TABS,ioos:station:wmo:42045:1,2017-10-01T22:30:00Z,26.2168,-96.4998,4.0,4.663571593,114.3121372,6.07,'11111222,11111222,11111222' 
TABS,ioos:station:wmo:42045:1,2017-10-01T23:00:00Z,26.2168,-96.4998,4.0,4.616708784,115.1222203,5.95,'11111222,11111222,11111222' 
TABS,ioos:station:wmo:42045:1,2017-10-01T23:30:00Z,26.2168,-96.4998,4.0,4.966135318,110.8805003,6.07,'11111222,11111222,11111222' 
TABS,ioos:station:wmo:42045:1,2017-10-02T00:00:00Z,26.2168,-96.4998,4.0,4.539713647,115.7187379,5.55,'11111222,11111222,11111222' 
TABS,ioos:station:wmo:42045:1,2017-10-02T00:30:00Z,26.2168,-96.4998,4.0,4.762152874,123.9573647,5.96,'11111222,11111222,11111222' 
TABS,ioos:station:wmo:42045:1,2017-10-02T01:00:00Z,26.2168,-96.4998,4.0,4.935848458,120.5659485,6.13,'11111222,11111222,11111222' 
TABS,ioos:station:wmo:42045:1,2017-10-02T01:30:00Z,26.2168,-96.4998,4.0,5.333610409,121.0377972,6.34,'11111222,11111222,11111222' 
TABS,ioos:station:wmo:42045:1,2017-10-02T02:00:00Z,26.2168,-96.4998,4.0,5.15171816,118.9037246,6.44,'11111222,11111222,11111222' 
TABS,ioos:station:wmo:42045:1,2017-10-02T02:30:00Z,26.2168,-96.4998,4.0,5.110088062,127.2066021,5.98,'11111222,11111222,11111222' 
TABS,ioos:station:wmo:42045:1,2017-10-02T03:00:00Z,26.2168,-96.4998,4.0,5.254379126,135.8485069,6.26,'11111222,11111222,11111222' 
TABS,ioos:station:wmo:42045:1,2017-10-02T03:30:00Z,26.2168,-96.4998,4.0,5.034918073,134.3565715,6.26,'11111222,11111222,11111222' 
TABS,ioos:station:wmo:42045:1,2017-10-02T04:00:00Z,26.2168,-96.4998,4.0,5.090481313,142.3424929,6.2,'11111222,11111222,11111222' 
TABS,ioos:station:wmo:42045:1,2017-10-02T04:30:00Z,26.2168,-96.4998,4.0,4.860133743,141.4325485,5.97,'11111222,11111222,11111222' 
TABS,ioos:station:wmo:42045:1,2017-10-02T05:00:00Z,26.2168,-96.4998,4.0,5.429769793,152.5857601,6.15,'11111222,11111222,11111222' 
TABS,ioos:station:wmo:42045:1,2017-10-02T05:30:00Z,26.2168,-96.4998,4.0,5.031779009,149.1536952,5.95,'11111222,11111222,11111222' 
TABS,ioos:station:wmo:42045:1,2017-10-02T06:00:00Z,26.2168,-96.4998,4.0,4.684794553,151.5752714,5.79,'11111222,11111222,11111222' 
TABS,ioos:station:wmo:42045:1,2017-10-02T06:30:00Z,26.2168,-96.4998,4.0,4.66652976,163.3127655,5.68,'11111222,11111222,11111222' 
TABS,ioos:station:wmo:42045:1,2017-10-02T07:00:00Z,26.2168,-96.4998,4.0,4.879764339,160.8598205,6.08,'11111222,11111222,11111222' 
TABS,ioos:station:wmo:42045:1,2017-10-02T07:30:00Z,26.2168,-96.4998,4.0,4.824458519,168.6437226,6.76,'11111222,11111222,11111222' 
TABS,ioos:station:wmo:42045:1,2017-10-02T08:00:00Z,26.2168,-96.4998,4.0,5.014987537,174.2782625,5.98,'11111222,11111222,11111222' 
TABS,ioos:station:wmo:42045:1,2017-10-02T08:30:00Z,26.2168,-96.4998,4.0,4.501655251,171.3121287,5.4,'11111222,11111222,11111222' 
TABS,ioos:station:wmo:42045:1,2017-10-02T09:00:00Z,26.2168,-96.4998,4.0,4.094801582,173.6909373,5.77,'11111222,11111222,11111222' 
TABS,ioos:station:wmo:42045:1,2017-10-02T09:30:00Z,26.2168,-96.4998,4.0,3.655707866,169.1206284,4.49,'11111222,11111222,11111222' 
TABS,ioos:station:wmo:42045:1,2017-10-02T10:00:00Z,26.2168,-96.4998,4.0,4.085156056,168.992871,5.12,'11111222,11111222,11111222' 
TABS,ioos:station:wmo:42045:1,2017-10-02T10:30:00Z,26.2168,-96.4998,4.0,3.784402198,167.1758423,4.81,'11111222,11111222,11111222' 
TABS,ioos:station:wmo:42045:1,2017-10-02T11:00:00Z,26.2168,-96.4998,4.0,4.031488559,158.4627637,5.29,'11111222,11111222,11111222' 
TABS,ioos:station:wmo:42045:1,2017-10-02T11:30:00Z,26.2168,-96.4998,4.0,4.161598251,157.6875255,4.88,'11111222,11111222,11111222' 
TABS,ioos:station:wmo:42045:1,2017-10-02T12:00:00Z,26.2168,-96.4998,4.0,4.240106131,156.2161398,5.44,'11111222,11111222,11111222' 
TABS,ioos:station:wmo:42045:1,2017-10-02T12:30:00Z,26.2168,-96.4998,4.0,4.384392774,156.4756468,5.27,'11111222,11111222,11111222' 
TABS,ioos:station:wmo:42045:1,2017-10-02T13:00:00Z,26.2168,-96.4998,4.0,4.199452345,153.8623376,5.05,'11111222,11111222,11111222' 
TABS,ioos:station:wmo:42045:1,2017-10-02T13:30:00Z,26.2168,-96.4998,4.0,4.426657882,148.3927821,5.55,'11111222,11111222,11111222' 
TABS,ioos:station:wmo:42045:1,2017-10-02T14:00:00Z,26.2168,-96.4998,4.0,3.953492127,153.8889105,4.86,'11111222,11111222,11111222' 
TABS,ioos:station:wmo:42045:1,2017-10-02T14:30:00Z,26.2168,-96.4998,4.0,4.254844298,155.1216722,5.08,'11111222,11111222,11111222' 
TABS,ioos:station:wmo:42045:1,2017-10-02T15:00:00Z,26.2168,-96.4998,4.0,4.745460989,157.0553334,5.85,'11111222,11111222,11111222' 
TABS,ioos:station:wmo:42045:1,2017-10-02T15:30:00Z,26.2168,-96.4998,4.0,4.504719747,152.0699431,5.6,'11111222,11111222,11111222' 
TABS,ioos:station:wmo:42045:1,2017-10-02T16:00:00Z,26.2168,-96.4998,4.0,4.123348154,153.1866518,4.88,'11111222,11111222,11111222' 
TABS,ioos:station:wmo:42045:1,2017-10-02T16:30:00Z,26.2168,-96.4998,4.0,4.343731115,150.4844492,5.44,'11111222,11111222,11111222' 
TABS,ioos:station:wmo:42045:1,2017-10-02T17:00:00Z,26.2168,-96.4998,4.0,4.930243402,155.0465614,6.09,'11111222,11111222,11111222' 
TABS,ioos:station:wmo:42045:1,2017-10-02T17:30:00Z,26.2168,-96.4998,4.0,4.612905809,158.7754795,5.75,'11111222,11111222,11111222' 
TABS,ioos:station:wmo:42045:1,2017-10-02T18:00:00Z,26.2168,-96.4998,4.0,4.821493545,152.5848846,5.91,'11111222,11111222,11111222' 
TABS,ioos:station:wmo:42045:1,2017-10-02T18:30:00Z,26.2168,-96.4998,4.0,4.676109494,150.2553987,5.38,'11111222,11111222,11111222' 
TABS,ioos:station:wmo:42045:1,2017-10-02T19:00:00Z,26.2168,-96.4998,4.0,4.611474818,154.4354317,5.43,'11111222,11111222,11111222' 
TABS,ioos:station:wmo:42045:1,2017-10-02T19:30:00Z,26.2168,-96.4998,4.0,4.469720349,156.5323664,5.56,'11111222,11111222,11111222' 
TABS,ioos:station:wmo:42045:1,2017-10-02T20:00:00Z,26.2168,-96.4998,4.0,3.984683174,153.3066119,5.21,'11111222,11111222,11111222' 
TABS,ioos:station:wmo:42045:1,2017-10-02T20:30:00Z,26.2168,-96.4998,4.0,3.824722212,152.0952168,5.03,'11111222,11111222,11111222' 
TABS,ioos:station:wmo:42045:1,2017-10-02T21:00:00Z,26.2168,-96.4998,4.0,3.658551626,139.2121593,4.7,'11111222,11111222,11111222' 
TABS,ioos:station:wmo:42045:1,2017-10-02T21:30:00Z,26.2168,-96.4998,4.0,4.682104228,145.5295829,6.0,'11111222,11111222,11111222' 
TABS,ioos:station:wmo:42045:1,2017-10-02T22:00:00Z,26.2168,-96.4998,4.0,4.766812352,142.0726055,5.87,'11111222,11111222,11111222' 
TABS,ioos:station:wmo:42045:1,2017-10-02T22:30:00Z,26.2168,-96.4998,4.0,4.814332768,137.8627142,6.19,'11111222,11111222,11111222' 
TABS,ioos:station:wmo:42045:1,2017-10-02T23:00:00Z,26.2168,-96.4998,4.0,4.578962765,137.3899376,5.47,'11111222,11111222,11111222' 
TABS,ioos:station:wmo:42045:1,2017-10-02T23:30:00Z,26.2168,-96.4998,4.0,4.84690623,132.9101614,6.09,'11111222,11111222,11111222' 
TABS,ioos:station:wmo:42045:1,2017-10-03T00:00:00Z,26.2168,-96.4998,4.0,4.987744981,131.4239897,6.13,'11111222,11111222,11111222' 
TABS,ioos:station:wmo:42045:1,2017-10-03T00:30:00Z,26.2168,-96.4998,4.0,5.181679264,129.9899466,6.16,'11111222,11111222,11111222' 
TABS,ioos:station:wmo:42045:1,2017-10-03T01:00:00Z,26.2168,-96.4998,4.0,5.900135592,133.2146988,7.3,'11111222,11111222,11111222' 
TABS,ioos:station:wmo:42045:1,2017-10-03T01:30:00Z,26.2168,-96.4998,4.0,5.904853936,134.2455664,6.95,'11111222,11111222,11111222' 
TABS,ioos:station:wmo:42045:1,2017-10-03T02:00:00Z,26.2168,-96.4998,4.0,6.067042113,135.2674263,7.12,'11111222,11111222,11111222' 
TABS,ioos:station:wmo:42045:1,2017-10-03T02:30:00Z,26.2168,-96.4998,4.0,5.998666518,136.6214578,6.98,'11111222,11111222,11111222' 
TABS,ioos:station:wmo:42045:1,2017-10-03T03:00:00Z,26.2168,-96.4998,4.0,6.270135565,137.3270756,7.64,'11111222,11111222,11111222' 
TABS,ioos:station:wmo:42045:1,2017-10-03T03:30:00Z,26.2168,-96.4998,4.0,5.946772234,134.9321877,7.53,'11111222,11111222,11111222' 
TABS,ioos:station:wmo:42045:1,2017-10-03T04:00:00Z,26.2168,-96.4998,4.0,6.30897773,133.7158752,7.36,'11111222,11111222,11111222' 
TABS,ioos:station:wmo:42045:1,2017-10-03T04:30:00Z,26.2168,-96.4998,4.0,5.747990953,137.6796842,6.91,'11111222,11111222,11111222' 
TABS,ioos:station:wmo:42045:1,2017-10-03T05:00:00Z,26.2168,-96.4998,4.0,6.652014732,143.250985,8.1,'11111222,11111222,11111222' 
TABS,ioos:station:wmo:42045:1,2017-10-03T05:30:00Z,26.2168,-96.4998,4.0,6.161404061,140.730524,7.35,'11111222,11111222,11111222' 
TABS,ioos:station:wmo:42045:1,2017-10-03T06:00:00Z,26.2168,-96.4998,4.0,6.729910846,140.7288659,7.72,'11111222,11111222,11111222' 
TABS,ioos:station:wmo:42045:1,2017-10-03T06:30:00Z,26.2168,-96.4998,4.0,7.056380092,145.5670416,8.75,'11111222,11111222,11111222' 
TABS,ioos:station:wmo:42045:1,2017-10-03T07:00:00Z,26.2168,-96.4998,4.0,6.976087729,151.4881398,8.77,'11111222,11111222,11111222' 
TABS,ioos:station:wmo:42045:1,2017-10-03T07:30:00Z,26.2168,-96.4998,4.0,6.131769728,152.7248085,8.28,'11111222,11111222,11111222' 
TABS,ioos:station:wmo:42045:1,2017-10-03T08:00:00Z,26.2168,-96.4998,4.0,8.71349528,150.0515005,11.28,'11111222,11111222,11111222' 
TABS,ioos:station:wmo:42045:1,2017-10-03T08:30:00Z,26.2168,-96.4998,4.0,8.422143433,162.4473685,10.14,'11111222,11111222,11111222' 
TABS,ioos:station:wmo:42045:1,2017-10-03T09:00:00Z,26.2168,-96.4998,4.0,8.320054086,161.2822043,9.65,'11111222,11111222,11111222' 
TABS,ioos:station:wmo:42045:1,2017-10-03T09:30:00Z,26.2168,-96.4998,4.0,8.40886437,166.3110416,9.92,'11111222,11111222,11111222' 
TABS,ioos:station:wmo:42045:1,2017-10-03T10:00:00Z,26.2168,-96.4998,4.0,7.344249451,166.4559583,8.89,'11111222,11111222,11111222' 
TABS,ioos:station:wmo:42045:1,2017-10-03T10:30:00Z,26.2168,-96.4998,4.0,7.162157496,165.6923665,8.71,'11111222,11111222,11111222' 
TABS,ioos:station:wmo:42045:1,2017-10-03T11:00:00Z,26.2168,-96.4998,4.0,7.952766814,166.1037876,9.86,'11111222,11111222,11111222' 
TABS,ioos:station:wmo:42045:1,2017-10-03T11:30:00Z,26.2168,-96.4998,4.0,7.29177619,168.2896421,8.95,'11111222,11111222,11111222' 
TABS,ioos:station:wmo:42045:1,2017-10-03T12:00:00Z,26.2168,-96.4998,4.0,6.919552009,162.2461168,8.97,'11111222,11111222,11111222' 
TABS,ioos:station:wmo:42045:1,2017-10-03T12:30:00Z,26.2168,-96.4998,4.0,7.429703897,165.103601,8.7,'11111222,11111222,11111222' 
TABS,ioos:station:wmo:42045:1,2017-10-03T13:00:00Z,26.2168,-96.4998,4.0,7.771904528,164.2472543,9.57,'11111222,11111222,11111222' 
TABS,ioos:station:wmo:42045:1,2017-10-03T13:30:00Z,26.2168,-96.4998,4.0,7.47893709,161.2019123,8.97,'11111222,11111222,11111222' 
TABS,ioos:station:wmo:42045:1,2017-10-03T14:00:00Z,26.2168,-96.4998,4.0,6.634131443,166.8437907,8.59,'11111222,11111222,11111222' 
TABS,ioos:station:wmo:42045:1,2017-10-03T14:30:00Z,26.2168,-96.4998,4.0,6.687308876,151.0205705,8.39,'11111222,11111222,11111222' 
TABS,ioos:station:wmo:42045:1,2017-10-03T15:00:00Z,26.2168,-96.4998,4.0,5.70629477,160.2316116,6.92,'11111222,11111222,11111222' 
TABS,ioos:station:wmo:42045:1,2017-10-03T15:30:00Z,26.2168,-96.4998,4.0,6.038617391,160.1549583,7.91,'11111222,11111222,11111222' 
TABS,ioos:station:wmo:42045:1,2017-10-03T16:00:00Z,26.2168,-96.4998,4.0,7.126043783,156.6010822,8.74,'11111222,11111222,11111222' 
TABS,ioos:station:wmo:42045:1,2017-10-03T16:30:00Z,26.2168,-96.4998,4.0,6.913993058,153.1757992,8.23,'11111222,11111222,11111222' 
TABS,ioos:station:wmo:42045:1,2017-10-03T17:00:00Z,26.2168,-96.4998,4.0,6.795770744,155.0190293,8.68,'11111222,11111222,11111222' 
TABS,ioos:station:wmo:42045:1,2017-10-03T17:30:00Z,26.2168,-96.4998,4.0,6.948740893,159.5310687,8.36,'11111222,11111222,11111222' 
TABS,ioos:station:wmo:42045:1,2017-10-03T18:00:00Z,26.2168,-96.4998,4.0,7.199534707,156.8539226,8.87,'11111222,11111222,11111222' 
TABS,ioos:station:wmo:42045:1,2017-10-03T18:30:00Z,26.2168,-96.4998,4.0,7.633937385,158.2406634,9.37,'11111222,11111222,11111222' 
TABS,ioos:station:wmo:42045:1,2017-10-03T19:00:00Z,26.2168,-96.4998,4.0,7.170557858,162.8035269,8.46,'11111222,11111222,11111222' 
TABS,ioos:station:wmo:42045:1,2017-10-03T19:30:00Z,26.2168,-96.4998,4.0,7.44422595,183.5429292,13.51,'11111222,11111222,11111222' 
TABS,ioos:station:wmo:42045:1,2017-10-03T20:00:00Z,26.2168,-96.4998,4.0,4.81772768,146.7720074,5.93,'11111222,11111222,11111222' 
TABS,ioos:station:wmo:42045:1,2017-10-03T20:30:00Z,26.2168,-96.4998,4.0,4.140350227,137.4473586,5.45,'11111222,11111222,11111222' 
TABS,ioos:station:wmo:42045:1,2017-10-03T21:00:00Z,26.2168,-96.4998,4.0,6.89731107,160.961109,8.71,'11111222,11111222,11111222' 
TABS,ioos:station:wmo:42045:1,2017-10-03T21:30:00Z,26.2168,-96.4998,4.0,6.844479527,165.6188495,8.2,'11111222,11111222,11111222' 
TABS,ioos:station:wmo:42045:1,2017-10-03T22:00:00Z,26.2168,-96.4998,4.0,6.519892637,155.4399471,8.05,'11111222,11111222,11111222' 
TABS,ioos:station:wmo:42045:1,2017-10-03T22:30:00Z,26.2168,-96.4998,4.0,6.784253828,153.2841456,7.91,'11111222,11111222,11111222' 
TABS,ioos:station:wmo:42045:1,2017-10-03T23:00:00Z,26.2168,-96.4998,4.0,5.597079596,146.7360983,7.3,'11111222,11111222,11111222' 
TABS,ioos:station:wmo:42045:1,2017-10-03T23:30:00Z,26.2168,-96.4998,4.0,6.668020696,155.5492016,8.01,'11111222,11111222,11111222' 
TABS,ioos:station:wmo:42045:1,2017-10-04T00:00:00Z,26.2168,-96.4998,4.0,6.040802927,140.0368601,7.23,'11111222,11111222,11111222' 
TABS,ioos:station:wmo:42045:1,2017-10-04T00:30:00Z,26.2168,-96.4998,4.0,7.857945024,136.2893791,10.19,'11111222,11111222,11111222' 
TABS,ioos:station:wmo:42045:1,2017-10-04T01:00:00Z,26.2168,-96.4998,4.0,7.936831862,141.5997982,9.72,'11111222,11111222,11111222' 
TABS,ioos:station:wmo:42045:1,2017-10-04T01:30:00Z,26.2168,-96.4998,4.0,7.976496725,149.3198609,9.59,'11111222,11111222,11111222' 
TABS,ioos:station:wmo:42045:1,2017-10-04T02:00:00Z,26.2168,-96.4998,4.0,8.65654088,149.9105946,10.67,'11111222,11111222,11111222' 
TABS,ioos:station:wmo:42045:1,2017-10-04T02:30:00Z,26.2168,-96.4998,4.0,8.580425397,141.7680641,10.26,'11111222,11111222,11111222' 
TABS,ioos:station:wmo:42045:1,2017-10-04T03:00:00Z,26.2168,-96.4998,4.0,8.194809333,140.7945243,9.93,'11111222,11111222,11111222' 
TABS,ioos:station:wmo:42045:1,2017-10-04T03:30:00Z,26.2168,-96.4998,4.0,7.736148913,142.774898,9.48,'11111222,11111222,11111222' 
TABS,ioos:station:wmo:42045:1,2017-10-04T04:00:00Z,26.2168,-96.4998,4.0,7.858562209,142.4450422,9.6,'11111222,11111222,11111222' 
TABS,ioos:station:wmo:42045:1,2017-10-04T04:30:00Z,26.2168,-96.4998,4.0,7.835260047,141.4775359,9.51,'11111222,11111222,11111222' 
TABS,ioos:station:wmo:42045:1,2017-10-04T05:00:00Z,26.2168,-96.4998,4.0,7.833319858,140.3352086,9.93,'11111222,11111222,11111222' 
TABS,ioos:station:wmo:42045:1,2017-10-04T05:30:00Z,26.2168,-96.4998,4.0,8.18293957,139.9078532,9.64,'11111222,11111222,11111222' 
TABS,ioos:station:wmo:42045:1,2017-10-04T06:00:00Z,26.2168,-96.4998,4.0,8.117616645,144.273901,10.21,'11111222,11111222,11111222' 
TABS,ioos:station:wmo:42045:1,2017-10-04T06:30:00Z,26.2168,-96.4998,4.0,8.059311385,148.3415505,10.23,'11111222,11111222,11111222' 
TABS,ioos:station:wmo:42045:1,2017-10-04T07:00:00Z,26.2168,-96.4998,4.0,7.583996308,144.4450512,9.59,'11111222,11111222,11111222' 
TABS,ioos:station:wmo:42045:1,2017-10-04T07:30:00Z,26.2168,-96.4998,4.0,8.381527307,144.2242164,9.97,'11111222,11111222,11111222' 
TABS,ioos:station:wmo:42045:1,2017-10-04T08:00:00Z,26.2168,-96.4998,4.0,6.922253968,139.4528769,8.6,'11111222,11111222,11111222' 
TABS,ioos:station:wmo:42045:1,2017-10-04T08:30:00Z,26.2168,-96.4998,4.0,6.77607556,143.4009786,8.33,'11111222,11111222,11111222' 
TABS,ioos:station:wmo:42045:1,2017-10-04T09:00:00Z,26.2168,-96.4998,4.0,8.289083182,142.2041264,9.91,'11111222,11111222,11111222' 
TABS,ioos:station:wmo:42045:1,2017-10-04T09:30:00Z,26.2168,-96.4998,4.0,10.15012315,129.1626419,12.29,'11111222,11111222,11111222' 
TABS,ioos:station:wmo:42045:1,2017-10-04T10:00:00Z,26.2168,-96.4998,4.0,10.60758691,138.7076765,12.73,'11111222,11111222,11111222' 
TABS,ioos:station:wmo:42045:1,2017-10-04T10:30:00Z,26.2168,-96.4998,4.0,9.701391653,140.3535295,12.22,'11111222,11111222,11111222' 
TABS,ioos:station:wmo:42045:1,2017-10-04T11:00:00Z,26.2168,-96.4998,4.0,9.053645675,145.4852495,11.16,'11111222,11111222,11111222' 
TABS,ioos:station:wmo:42045:1,2017-10-04T11:30:00Z,26.2168,-96.4998,4.0,8.536070525,144.392391,10.16,'11111222,11111222,11111222' 
TABS,ioos:station:wmo:42045:1,2017-10-04T12:00:00Z,26.2168,-96.4998,4.0,8.796590248,151.628938,10.8,'11111222,11111222,11111222' 
TABS,ioos:station:wmo:42045:1,2017-10-04T12:30:00Z,26.2168,-96.4998,4.0,6.044013567,141.6513962,7.34,'11111222,11111222,11111222' 
TABS,ioos:station:wmo:42045:1,2017-10-04T13:00:00Z,26.2168,-96.4998,4.0,6.912344031,141.6382305,9.47,'11111222,11111222,11111222' 
TABS,ioos:station:wmo:42045:1,2017-10-04T13:30:00Z,26.2168,-96.4998,4.0,7.635037655,139.781573,9.39,'11111222,11111222,11111222' 
TABS,ioos:station:wmo:42045:1,2017-10-04T14:00:00Z,26.2168,-96.4998,4.0,7.75361851,136.7771655,9.11,'11111222,11111222,11111222' 
TABS,ioos:station:wmo:42045:1,2017-10-04T14:30:00Z,26.2168,-96.4998,4.0,7.176217667,141.1659253,8.46,'11111222,11111222,11111222' 
TABS,ioos:station:wmo:42045:1,2017-10-04T15:00:00Z,26.2168,-96.4998,4.0,6.660330322,131.3481014,7.72,'11111222,11111222,11111222' 
TABS,ioos:station:wmo:42045:1,2017-10-04T15:30:00Z,26.2168,-96.4998,4.0,6.734864512,129.4573366,8.05,'11111222,11111222,11111222' 
TABS,ioos:station:wmo:42045:1,2017-10-04T16:00:00Z,26.2168,-96.4998,4.0,6.158904123,131.1162383,7.41,'11111222,11111222,11111222' 
TABS,ioos:station:wmo:42045:1,2017-10-04T16:30:00Z,26.2168,-96.4998,4.0,6.371820776,120.1467529,8.22,'11111222,11111222,11111222' 
TABS,ioos:station:wmo:42045:1,2017-10-04T17:00:00Z,26.2168,-96.4998,4.0,7.013451361,125.0726709,8.6,'11111222,11111222,11111222' 
TABS,ioos:station:wmo:42045:1,2017-10-04T17:30:00Z,26.2168,-96.4998,4.0,6.633882724,119.0381794,7.82,'11111222,11111222,11111222' 
TABS,ioos:station:wmo:42045:1,2017-10-04T18:00:00Z,26.2168,-96.4998,4.0,6.650187967,116.912185,8.01,'11111222,11111222,11111222' 
TABS,ioos:station:wmo:42045:1,2017-10-04T18:30:00Z,26.2168,-96.4998,4.0,6.088021025,119.091521,7.27,'11111222,11111222,11111222' 